Regional Weather Roundup
Issued by NWS Little Rock, AR

Home | Current Version | Previous Version | Graphics & Text | Print | Product List | Glossary On
Versions: 1 2 3 4 5 6 7 8 9 10 11 12 13 14 15 16 17 18 19 20 21 22 23 24 25 26 27 28 29 30 31
000
ASUS44 KLZK 180805
RWRLZK

WEATHER ROUNDUP FOR ARKANSAS
NATIONAL WEATHER SERVICE LITTLE ROCK AR
200 AM CST WED JAN 18 2017

NOTE: "FAIR" INDICATES FEW OR NO CLOUDS BELOW 12,000 FEET WITH NO
SIGNIFICANT WEATHER AND/OR OBSTRUCTIONS TO VISIBILITY.

ARZ001-003-010-029-180900-
NORTHWEST ARKANSAS

CITY           SKY/WX    TMP DP  RH WIND       PRES   REMARKS
FAYETTEVILLE   CLOUDY    39  38  96 N3        30.14F
FORT SMITH     CLOUDY    41  37  86 CALM      30.16F
HARRISON       MOCLDY    39  37  92 CALM      30.16F
BENTONVILLE    CLOUDY   N/A N/A N/A CALM      30.17R
ROGERS         MOCLDY    37  36  96 E3        30.18R
SILOAM SPGS    CLOUDY    37  34  87 CALM      30.16R
HIGHFILL       CLOUDY    37  35  92 CALM      30.16R
$$

ARZ004-005-016-180900-
NORTH CENTRAL ARKANSAS

CITY           SKY/WX    TMP DP  RH WIND       PRES   REMARKS
BATESVILLE     CLOUDY    39  36  87 CALM      30.21S
FLIPPIN        CLOUDY    41  34  75 CALM      30.18R
MTN HOME       CLOUDY    39  37  92 NW3       30.18F
$$

ARZ040-041-180900-
WEST CENTRAL ARKANSAS

CITY           SKY/WX    TMP DP  RH WIND       PRES   REMARKS
MENA           CLOUDY    46  46 100 CALM      30.15F
MOUNT IDA      CLOUDY    46  41  82 CALM      30.14R
$$

ARZ009-017-025-026-028-180900-
NORTHEAST ARKANSAS

CITY           SKY/WX    TMP DP  RH WIND       PRES   REMARKS
CORNING        CLOUDY    43  39  87 NW3       30.21S
JONESBORO      CLOUDY    40  38  93 CALM      30.21S
NEWPORT        CLOUDY    40  38  93 MISG      30.21
WALNUT RIDGE   CLOUDY    39  34  81 W6        30.21R
BLYTHEVILLE    PTCLDY    42  40  92 W3        30.20R
$$

ARZ022-023-033-042-044-180900-
CENTRAL ARKANSAS

CITY           SKY/WX    TMP DP  RH WIND       PRES   REMARKS
LITTLE ROCK    CLOUDY    45  43  93 N3        30.20S
N LITTLE ROCK    N/A     44  41  89 CALM      30.20F
JACKSONVILLE   PTCLDY    45  42  91 CALM      30.18F
SEARCY         MOCLDY    42  40  92 NE5       30.21F
HOT SPRINGS    LGT RAIN  48  46  93 SE3       30.17S
RUSSELLVILLE   CLOUDY    41  38  89 CALM      30.16F
CLINTON        FAIR      37  37 100 CALM      30.19S
$$

ARZ036-180900-
EAST ARKANSAS

CITY           SKY/WX    TMP DP  RH WIND       PRES   REMARKS
WEST MEMPHIS   MOCLDY    44  43  96 CALM      30.20R
$$

ARZ050-053-066-070-073-180900-
SOUTHWEST ARKANSAS

CITY           SKY/WX    TMP DP  RH WIND       PRES   REMARKS
ARKADELPHIA    RAIN      49  48  97 E5        30.19S
CAMDEN         HVY RAIN  50  48  93 NE6       30.19R
TEXARKANA      HVY RAIN  48  48 100 N5        30.15R FOG
EL DORADO      LGT RAIN  52  51  97 N6        30.18R
DE QUEEN       LGT RAIN  48  48 100 CALM      30.13F
$$

ARZ056-057-069-180900-
SOUTHEAST ARKANSAS

CITY           SKY/WX    TMP DP  RH WIND       PRES   REMARKS
PINE BLUFF     LGT RAIN  49  44  83 N3        30.19S
STUTTGART      MOCLDY    48  39  71 N10       30.20R
MONTICELLO     CLOUDY    52  48  86 NE6       30.17S

$$






USA.gov is the U.S. government's official web portal to all federal, state and local government web resources and services.